Regional Weather Roundup
Issued by NWS

Home | Current Version | Previous Version | Text Only | Print | Product List | Glossary On
Versions: 1 2 3 4 5 6 7 8 9 10 11 12 13 14 15 16 17 18 19 20 21 22 23 24 25 26 27 28 29 30 31 32 33 34 35 36 37 38 39 40 41 42 43 44 45 46 47 48 49 50
000
ASUS44 KBMX 221310
RWRAL

ALABAMA REGIONAL WEATHER ROUNDUP
NATIONAL WEATHER SERVICE BIRMINGHAM AL
700 AM CST WED FEB 22 2017

NOTE: "FAIR" INDICATES FEW OR NO CLOUDS BELOW 12,000 FEET
WITH NO SIGNIFICANT WEATHER AND/OR OBSTRUCTIONS TO VISIBILITY.

THE REMARK "TC" DENOTES TEMPERATURE IN DEGREES CELSIUS.

ALZ001>011-014-016>018-020-221400-
NORTH ALABAMA

CITY           SKY/WX    TMP DP  RH WIND       PRES   REMARKS
MUSCLE SHOALS  MOCLDY    58  55  90 E5        29.88S
HUNTSVILLE     CLOUDY    60  58  92 N3        29.89R
DECATUR        CLOUDY    58  58 100 NE5       29.90R
HALEYVILLE     FOG       56  56 100 VRB6      29.89S VSB 1
GADSDEN        CLOUDY    59  58  96 NE9       29.89R
$$

ALZ012-013-022-023-030>036-040>044-221400-
WEST CENTRAL ALABAMA

CITY           SKY/WX    TMP DP  RH WIND       PRES   REMARKS
TUSCALOOSA     CLOUDY    57  56  96 NE5       29.86R FOG
$$

ALZ015-024>027-033>036-040>044-221400-
CENTRAL ALABAMA

CITY           SKY/WX    TMP DP  RH WIND       PRES   REMARKS
BIRMINGHAM     CLOUDY    60  59  96 CALM      29.89R
MONTGOMERY     CLOUDY    61  57  87 CALM      29.83R FOG
SHELBY CO ARPT CLOUDY    60  60 100 N3        29.86R FOG
MAXWELL AFB    LGT RAIN  61  61 100 N3        29.83R
GREENVILLE     CLOUDY    59  56  89 N5        29.81S FOG
$$

ALZ019-021-028-029-037-038-045>048-221400-
EAST CENTRAL ALABAMA

CITY           SKY/WX    TMP DP  RH WIND       PRES   REMARKS
ANNISTON       CLOUDY    61  59  93 NE7       29.87R
ALEXANDER CITY MOCLDY    58  58  99 CALM      29.85R
AUBURN         LGT RAIN  60  59  96 NE8       29.85S
$$

ALZ051>064-221400-
SOUTHWEST ALABAMA

CITY           SKY/WX    TMP DP  RH WIND       PRES   REMARKS
MOBILE         FOG       58  57  97 N3        29.82S VSB 1
BROOKLEY FIELD CLOUDY    60  59  96 N7        29.83R FOG
EVERGREEN      LGT RAIN  59  57  93 N3        29.82R FOG
$$

ALZ049-050-065>069-221400-
SOUTHEAST ALABAMA

CITY           SKY/WX    TMP DP  RH WIND       PRES   REMARKS
DOTHAN         LGT RAIN  60  60 100 N3        29.82R
OZARK          LGT RAIN  59  59 100 N6        29.80F
TROY           CLOUDY    59  59 100 N3        29.82S
EUFAULA        LGT RAIN  62  60  93 VRB3      29.79F
$$



USA.gov is the U.S. government's official web portal to all federal, state and local government web resources and services.